Year,Month,Day,Hour,Minute,Value (Times are PST for temperature in C)
2006,07,24,00,00,15.40
2006,07,24,00,01,15.20
2006,07,24,00,02,15.10
2006,07,24,00,03,14.90
2006,07,24,00,04,14.80
2006,07,24,00,05,14.70
2006,07,24,00,06,14.60
2006,07,24,00,07,14.50
2006,07,24,00,08,14.50
2006,07,24,00,09,14.40
2006,07,24,00,10,14.30
2006,07,24,00,11,14.20
2006,07,24,00,12,14.20
2006,07,24,00,13,14.20
2006,07,24,00,14,14.20
2006,07,24,00,15,14.20
2006,07,24,00,16,14.00
2006,07,24,00,17,14.00
2006,07,24,00,18,14.00
2006,07,24,00,19,14.00
2006,07,24,00,20,14.00
2006,07,24,00,21,14.00
2006,07,24,00,22,13.90
2006,07,24,00,23,13.80
2006,07,24,00,24,13.80
2006,07,24,00,25,13.70
2006,07,24,00,26,13.70
2006,07,24,00,27,13.70
2006,07,24,00,28,13.70
2006,07,24,00,29,13.60
2006,07,24,00,30,13.60
2006,07,24,00,31,13.60
2006,07,24,00,32,13.60
2006,07,24,00,33,13.60
2006,07,24,00,34,13.60
2006,07,24,00,35,13.50
2006,07,24,00,36,13.50
2006,07,24,00,37,13.50
2006,07,24,00,38,13.50
2006,07,24,00,39,13.50
2006,07,24,00,40,13.50
2006,07,24,00,41,13.50
2006,07,24,00,42,13.50
2006,07,24,00,43,13.50
2006,07,24,00,44,13.60
2006,07,24,00,45,13.60
2006,07,24,00,46,13.60
2006,07,24,00,47,13.70
2006,07,24,00,48,13.70
2006,07,24,00,49,13.70
2006,07,24,00,50,13.80
2006,07,24,00,51,13.80
2006,07,24,00,52,13.90
2006,07,24,00,53,13.90
2006,07,24,00,54,13.90
2006,07,24,00,55,14.00
2006,07,24,00,56,14.00
2006,07,24,00,57,14.00
2006,07,24,00,58,14.00
2006,07,24,00,59,14.00
2006,07,24,01,00,14.10
2006,07,24,01,01,14.10
2006,07,24,01,02,14.10
2006,07,24,01,03,14.20
2006,07,24,01,04,14.20
2006,07,24,01,05,14.20
2006,07,24,01,06,14.20
2006,07,24,01,07,14.20
2006,07,24,01,08,14.20
2006,07,24,01,09,14.20
2006,07,24,01,10,14.30
2006,07,24,01,11,14.30
2006,07,24,01,12,14.40
2006,07,24,01,13,14.40
2006,07,24,01,14,14.40
2006,07,24,01,15,14.50
2006,07,24,01,16,14.50
2006,07,24,01,17,14.50
2006,07,24,01,18,14.50
2006,07,24,01,19,14.50
2006,07,24,01,20,14.50
2006,07,24,01,21,14.60
2006,07,24,01,22,14.60
2006,07,24,01,23,14.60
2006,07,24,01,24,14.60
2006,07,24,01,25,14.60
2006,07,24,01,26,14.60
2006,07,24,01,27,14.60
2006,07,24,01,28,14.60
2006,07,24,01,29,14.60
2006,07,24,01,30,14.60
2006,07,24,01,31,14.60
2006,07,24,01,32,14.60
2006,07,24,01,33,14.60
2006,07,24,01,34,14.60
2006,07,24,01,35,14.60
2006,07,24,01,36,14.60
2006,07,24,01,37,14.60
2006,07,24,01,38,14.60
2006,07,24,01,39,14.60
2006,07,24,01,40,14.60
2006,07,24,01,41,14.60
2006,07,24,01,42,14.70
2006,07,24,01,43,14.70
2006,07,24,01,44,14.70
2006,07,24,01,45,14.70
2006,07,24,01,46,14.70
2006,07,24,01,47,14.70
2006,07,24,01,48,14.70
2006,07,24,01,49,14.70
2006,07,24,01,50,14.70
2006,07,24,01,51,14.70
2006,07,24,01,52,14.70
2006,07,24,01,53,14.70
2006,07,24,01,54,14.80
2006,07,24,01,55,14.80
2006,07,24,01,56,14.90
2006,07,24,01,57,14.90
2006,07,24,01,58,14.90
2006,07,24,01,59,14.90
2006,07,24,02,00,14.90
2006,07,24,02,01,14.90
2006,07,24,02,02,15.20
2006,07,24,02,03,15.30
2006,07,24,02,04,15.30
2006,07,24,02,05,15.30
2006,07,24,02,06,15.30
2006,07,24,02,07,15.30
2006,07,24,02,08,15.30
2006,07,24,02,09,15.30
2006,07,24,02,10,15.40
2006,07,24,02,11,15.40
2006,07,24,02,12,15.40
2006,07,24,02,13,15.50
2006,07,24,02,14,15.50
2006,07,24,02,15,15.60
2006,07,24,02,16,15.60
2006,07,24,02,17,15.60
2006,07,24,02,18,15.70
2006,07,24,02,19,15.70
2006,07,24,02,20,15.80
2006,07,24,02,21,15.80
2006,07,24,02,22,15.80
2006,07,24,02,23,15.80
2006,07,24,02,24,15.80
2006,07,24,02,25,15.80
2006,07,24,02,26,15.80
2006,07,24,02,27,15.80
2006,07,24,02,28,15.80
2006,07,24,02,29,15.80
2006,07,24,02,30,15.90
2006,07,24,02,31,15.90
2006,07,24,02,32,15.90
2006,07,24,02,33,16.00
2006,07,24,02,34,16.10
2006,07,24,02,35,16.10
2006,07,24,02,36,16.10
2006,07,24,02,37,16.20
2006,07,24,02,38,16.20
2006,07,24,02,39,16.20
2006,07,24,02,40,16.30
2006,07,24,02,41,16.30
2006,07,24,02,42,16.30
2006,07,24,02,43,16.30
2006,07,24,02,44,16.20
2006,07,24,02,45,16.20
2006,07,24,02,46,16.20
2006,07,24,02,47,16.10
2006,07,24,02,48,16.10
2006,07,24,02,49,16.10
2006,07,24,02,50,16.10
2006,07,24,02,51,16.10
2006,07,24,02,52,16.10
2006,07,24,02,53,15.90
2006,07,24,02,54,15.90
2006,07,24,02,55,15.90
2006,07,24,02,56,15.90
2006,07,24,02,57,15.80
2006,07,24,02,58,15.80
2006,07,24,02,59,15.80
2006,07,24,03,00,15.80
2006,07,24,03,01,15.80
2006,07,24,03,02,15.80
2006,07,24,03,03,15.80
2006,07,24,03,04,15.80
2006,07,24,03,05,15.80
2006,07,24,03,06,15.80
2006,07,24,03,07,15.80
2006,07,24,03,08,15.80
2006,07,24,03,09,15.80
2006,07,24,03,10,15.70
2006,07,24,03,11,15.70
2006,07,24,03,12,15.70
2006,07,24,03,13,15.70
2006,07,24,03,14,15.70
2006,07,24,03,15,15.70
2006,07,24,03,16,15.60
2006,07,24,03,17,15.60
2006,07,24,03,18,15.60
2006,07,24,03,19,15.60
2006,07,24,03,20,15.50
2006,07,24,03,21,15.50
2006,07,24,03,22,15.50
2006,07,24,03,23,15.50
2006,07,24,03,24,15.50
2006,07,24,03,25,15.50
2006,07,24,03,26,15.50
2006,07,24,03,27,15.40
2006,07,24,03,28,15.40
2006,07,24,03,29,15.40
2006,07,24,03,30,15.40
2006,07,24,03,31,15.30
2006,07,24,03,32,15.30
2006,07,24,03,33,15.30
2006,07,24,03,34,15.30
2006,07,24,03,35,15.30
2006,07,24,03,36,15.30
2006,07,24,03,37,15.30
2006,07,24,03,38,15.30
2006,07,24,03,39,15.30
2006,07,24,03,40,15.30
2006,07,24,03,41,15.30
2006,07,24,03,42,15.30
2006,07,24,03,43,15.30
2006,07,24,03,44,15.30
2006,07,24,03,45,15.30
2006,07,24,03,46,15.30
2006,07,24,03,47,15.30
2006,07,24,03,48,15.30
2006,07,24,03,49,15.30
2006,07,24,03,50,15.40
2006,07,24,03,51,15.40
2006,07,24,03,52,15.40
2006,07,24,03,53,15.40
2006,07,24,03,54,15.40
2006,07,24,03,55,15.40
2006,07,24,03,56,15.40
2006,07,24,03,57,15.30
2006,07,24,03,58,15.30
2006,07,24,03,59,15.30
2006,07,24,04,00,15.30
2006,07,24,04,01,15.30
2006,07,24,04,02,15.30
2006,07,24,04,03,15.30
2006,07,24,04,04,15.30
2006,07,24,04,05,15.30
2006,07,24,04,06,15.30
2006,07,24,04,07,15.30
2006,07,24,04,08,15.40
2006,07,24,04,09,15.40
2006,07,24,04,10,15.40
2006,07,24,04,11,15.40
2006,07,24,04,12,15.40
2006,07,24,04,13,15.40
2006,07,24,04,14,15.40
2006,07,24,04,15,15.40
2006,07,24,04,16,15.40
2006,07,24,04,17,15.40
2006,07,24,04,18,15.40
2006,07,24,04,19,15.40
2006,07,24,04,20,15.30
2006,07,24,04,21,15.30
2006,07,24,04,22,15.30
2006,07,24,04,23,15.10
2006,07,24,04,24,15.10
2006,07,24,04,25,15.10
2006,07,24,04,26,14.90
2006,07,24,04,27,14.90
2006,07,24,04,28,14.90
2006,07,24,04,29,14.80
2006,07,24,04,30,14.80
2006,07,24,04,31,14.70
2006,07,24,04,32,14.70
2006,07,24,04,33,14.60
2006,07,24,04,34,14.50
2006,07,24,04,35,14.50
2006,07,24,04,36,14.40
2006,07,24,04,37,14.30
2006,07,24,04,38,14.20
2006,07,24,04,39,14.10
2006,07,24,04,40,14.00
2006,07,24,04,41,14.00
2006,07,24,04,42,14.00
2006,07,24,04,43,13.90
2006,07,24,04,44,13.80
2006,07,24,04,45,13.80
2006,07,24,04,46,13.70
2006,07,24,04,47,13.70
2006,07,24,04,48,13.70
2006,07,24,04,49,13.70
2006,07,24,04,50,13.70
2006,07,24,04,51,13.70
2006,07,24,04,52,13.70
2006,07,24,04,53,13.70
2006,07,24,04,54,13.70
2006,07,24,04,55,13.70
2006,07,24,04,56,13.70
2006,07,24,04,57,13.70
2006,07,24,04,58,13.70
2006,07,24,04,59,13.70
2006,07,24,05,00,13.70
2006,07,24,05,01,13.70
2006,07,24,05,02,13.70
2006,07,24,05,03,13.70
2006,07,24,05,04,13.70
2006,07,24,05,05,13.70
2006,07,24,05,06,13.70
2006,07,24,05,07,13.70
2006,07,24,05,08,13.70
2006,07,24,05,09,13.70
2006,07,24,05,10,13.70
2006,07,24,05,11,13.70
2006,07,24,05,12,13.70
2006,07,24,05,13,13.70
2006,07,24,05,14,13.70
2006,07,24,05,15,13.70
2006,07,24,05,16,13.70
2006,07,24,05,17,13.70
2006,07,24,05,18,13.70
2006,07,24,05,19,13.70
2006,07,24,05,20,13.70
2006,07,24,05,21,13.70
2006,07,24,05,22,13.70
2006,07,24,05,23,13.80
2006,07,24,05,24,13.80
2006,07,24,05,25,13.80
2006,07,24,05,26,13.80
2006,07,24,05,27,13.80
2006,07,24,05,28,13.80
2006,07,24,05,29,13.80
2006,07,24,05,30,13.90
2006,07,24,05,31,13.90
2006,07,24,05,32,13.90
2006,07,24,05,33,14.00
2006,07,24,05,34,14.00
2006,07,24,05,35,14.10
2006,07,24,05,36,14.20
2006,07,24,05,37,14.20
2006,07,24,05,38,14.30
2006,07,24,05,39,14.40
2006,07,24,05,40,14.50
2006,07,24,05,41,14.60
2006,07,24,05,42,14.60
2006,07,24,05,43,14.70
2006,07,24,05,44,14.80
2006,07,24,05,45,14.80
2006,07,24,05,46,14.80
2006,07,24,05,47,14.90
2006,07,24,05,48,14.90
2006,07,24,05,49,14.90
2006,07,24,05,50,15.00
2006,07,24,05,51,15.00
2006,07,24,05,52,15.00
2006,07,24,05,53,15.10
2006,07,24,05,54,15.10
2006,07,24,05,55,15.10
2006,07,24,05,56,15.10
2006,07,24,05,57,15.00
2006,07,24,05,58,15.10
2006,07,24,05,59,15.10
2006,07,24,06,00,15.10
2006,07,24,06,01,15.10
2006,07,24,06,02,15.20
2006,07,24,06,03,15.20
2006,07,24,06,04,15.30
2006,07,24,06,05,15.30
2006,07,24,06,06,15.30
2006,07,24,06,07,15.30
2006,07,24,06,08,15.30
2006,07,24,06,09,15.30
2006,07,24,06,10,15.30
2006,07,24,06,11,15.40
2006,07,24,06,12,15.50
2006,07,24,06,13,15.60
2006,07,24,06,14,15.60
2006,07,24,06,15,15.70
2006,07,24,06,16,15.70
2006,07,24,06,17,15.60
2006,07,24,06,18,15.60
2006,07,24,06,19,15.60
2006,07,24,06,20,15.60
2006,07,24,06,21,15.60
2006,07,24,06,22,15.60
2006,07,24,06,23,15.60
2006,07,24,06,24,15.60
2006,07,24,06,25,15.70
2006,07,24,06,26,15.70
2006,07,24,06,27,15.70
2006,07,24,06,28,15.80
2006,07,24,06,29,15.80
2006,07,24,06,30,15.90
2006,07,24,06,31,16.00
2006,07,24,06,32,16.10
2006,07,24,06,33,16.10
2006,07,24,06,34,16.20
2006,07,24,06,35,16.20
2006,07,24,06,36,16.30
2006,07,24,06,37,16.30
2006,07,24,06,38,16.30
2006,07,24,06,39,16.40
2006,07,24,06,40,16.40
2006,07,24,06,41,16.40
2006,07,24,06,42,16.60
2006,07,24,06,43,16.60
2006,07,24,06,44,16.60
2006,07,24,06,45,16.70
2006,07,24,06,46,16.70
2006,07,24,06,47,16.70
2006,07,24,06,48,16.70
2006,07,24,06,49,16.70
2006,07,24,06,50,16.70
2006,07,24,06,51,16.70
2006,07,24,06,52,16.70
2006,07,24,06,53,16.80
2006,07,24,06,54,16.80
2006,07,24,06,55,16.80
2006,07,24,06,56,16.90
2006,07,24,06,57,16.90
2006,07,24,06,58,16.90
2006,07,24,06,59,17.00
2006,07,24,07,00,17.00
2006,07,24,07,01,17.10
2006,07,24,07,02,17.10
2006,07,24,07,03,17.10
2006,07,24,07,04,17.10
2006,07,24,07,05,17.10
2006,07,24,07,06,17.20
2006,07,24,07,07,17.20
2006,07,24,07,08,17.20
2006,07,24,07,09,17.30
2006,07,24,07,10,17.40
2006,07,24,07,11,17.50
2006,07,24,07,12,17.70
2006,07,24,07,13,17.70
2006,07,24,07,14,17.80
2006,07,24,07,15,17.90
2006,07,24,07,16,18.00
2006,07,24,07,17,18.10
2006,07,24,07,18,18.20
2006,07,24,07,19,18.30
2006,07,24,07,20,18.30
2006,07,24,07,21,18.40
2006,07,24,07,22,18.50
2006,07,24,07,23,18.60
2006,07,24,07,24,18.70
2006,07,24,07,25,18.80
2006,07,24,07,26,18.90
2006,07,24,07,27,19.00
2006,07,24,07,28,19.10
2006,07,24,07,29,19.20
2006,07,24,07,30,19.30
2006,07,24,07,31,19.30
2006,07,24,07,32,19.40
2006,07,24,07,33,19.50
2006,07,24,07,34,19.50
2006,07,24,07,35,19.50
2006,07,24,07,36,19.60
2006,07,24,07,37,19.50
2006,07,24,07,38,19.50
2006,07,24,07,39,19.50
2006,07,24,07,40,19.40
2006,07,24,07,41,19.40
2006,07,24,07,42,19.40
2006,07,24,07,43,19.30
2006,07,24,07,44,19.30
2006,07,24,07,45,19.40
2006,07,24,07,46,19.20
2006,07,24,07,47,19.00
2006,07,24,07,48,18.70
2006,07,24,07,49,18.40
2006,07,24,07,50,18.10
2006,07,24,07,51,17.90
2006,07,24,07,52,17.70
2006,07,24,07,53,17.60
2006,07,24,07,54,17.50
2006,07,24,07,55,17.50
2006,07,24,07,56,17.40
2006,07,24,07,57,17.30
2006,07,24,07,58,17.20
2006,07,24,07,59,17.10
2006,07,24,08,00,17.00
2006,07,24,08,01,17.00
2006,07,24,08,02,16.90
2006,07,24,08,03,16.90
2006,07,24,08,04,16.80
2006,07,24,08,05,16.70
2006,07,24,08,06,16.70
2006,07,24,08,07,16.60
2006,07,24,08,08,16.60
2006,07,24,08,09,16.40
2006,07,24,08,10,16.40
2006,07,24,08,11,16.40
2006,07,24,08,12,16.40
2006,07,24,08,13,16.30
2006,07,24,08,14,16.30
2006,07,24,08,15,16.20
2006,07,24,08,16,16.20
2006,07,24,08,17,16.20
2006,07,24,08,18,16.30
2006,07,24,08,19,16.30
2006,07,24,08,20,16.40
2006,07,24,08,21,16.50
2006,07,24,08,22,16.60
2006,07,24,08,23,16.80
2006,07,24,08,24,16.90
2006,07,24,08,25,17.00
2006,07,24,08,26,17.00
2006,07,24,08,27,17.10
2006,07,24,08,28,17.20
2006,07,24,08,29,17.20
2006,07,24,08,30,17.30
2006,07,24,08,31,17.30
2006,07,24,08,32,17.40
2006,07,24,08,33,17.30
2006,07,24,08,34,17.30
2006,07,24,08,35,17.30
2006,07,24,08,36,17.30
2006,07,24,08,37,17.30
2006,07,24,08,38,17.50
2006,07,24,08,39,17.50
2006,07,24,08,40,17.70
2006,07,24,08,41,17.90
2006,07,24,08,42,18.00
2006,07,24,08,43,18.10
2006,07,24,08,44,18.20
2006,07,24,08,45,18.20
2006,07,24,08,46,18.20
2006,07,24,08,47,18.50
2006,07,24,08,48,18.50
2006,07,24,08,49,18.60
2006,07,24,08,50,18.70
2006,07,24,08,51,18.80
2006,07,24,08,52,18.80
2006,07,24,08,53,18.80
2006,07,24,08,54,19.10
2006,07,24,08,55,19.20
2006,07,24,08,56,19.40
2006,07,24,08,57,19.50
2006,07,24,08,58,19.60
2006,07,24,08,59,19.70
2006,07,24,09,00,19.80
2006,07,24,09,01,19.90
2006,07,24,09,02,19.90
2006,07,24,09,03,20.00
2006,07,24,09,04,20.10
2006,07,24,09,05,20.20
2006,07,24,09,06,20.20
2006,07,24,09,07,20.30
2006,07,24,09,08,20.30
2006,07,24,09,09,20.40
2006,07,24,09,10,20.50
2006,07,24,09,11,20.60
2006,07,24,09,12,20.70
2006,07,24,09,13,20.80
2006,07,24,09,14,20.80
2006,07,24,09,15,20.80
2006,07,24,09,16,20.80
2006,07,24,09,17,20.80
2006,07,24,09,18,20.80
2006,07,24,09,19,20.80
2006,07,24,09,20,20.80
2006,07,24,09,21,20.80
2006,07,24,09,22,20.80
2006,07,24,09,23,20.90
2006,07,24,09,24,20.90
2006,07,24,09,25,21.00
2006,07,24,09,26,21.10
2006,07,24,09,27,21.10
2006,07,24,09,28,21.20
2006,07,24,09,29,21.30
2006,07,24,09,30,21.40
2006,07,24,09,31,21.50
2006,07,24,09,32,21.60
2006,07,24,09,33,21.60
2006,07,24,09,34,21.60
2006,07,24,09,35,21.60
2006,07,24,09,36,21.50
2006,07,24,09,37,21.40
2006,07,24,09,38,21.40
2006,07,24,09,39,21.40
2006,07,24,09,40,21.40
2006,07,24,09,41,21.40
2006,07,24,09,42,21.50
2006,07,24,09,43,21.60
2006,07,24,09,44,21.60
2006,07,24,09,45,21.70
2006,07,24,09,46,21.80
2006,07,24,09,47,22.00
2006,07,24,09,48,22.10
2006,07,24,09,49,22.20
2006,07,24,09,50,22.30
2006,07,24,09,51,22.30
2006,07,24,09,52,22.20
2006,07,24,09,53,22.00
2006,07,24,09,54,21.80
2006,07,24,09,55,21.60
2006,07,24,09,56,21.40
2006,07,24,09,57,21.30
2006,07,24,09,58,21.30
2006,07,24,09,59,21.20
2006,07,24,10,00,21.20
2006,07,24,10,01,21.20
2006,07,24,10,02,21.20
2006,07,24,10,03,21.10
2006,07,24,10,04,21.10
2006,07,24,10,05,21.00
2006,07,24,10,06,20.90
2006,07,24,10,07,20.70
2006,07,24,10,08,20.50
2006,07,24,10,09,20.40
2006,07,24,10,10,20.30
2006,07,24,10,11,20.20
2006,07,24,10,12,20.20
2006,07,24,10,13,20.20
2006,07,24,10,14,20.30
2006,07,24,10,15,20.40
2006,07,24,10,16,20.50
2006,07,24,10,17,20.60
2006,07,24,10,18,20.70
2006,07,24,10,19,20.80
2006,07,24,10,20,20.90
2006,07,24,10,21,21.10
2006,07,24,10,22,21.20
2006,07,24,10,23,21.40
2006,07,24,10,24,21.60
2006,07,24,10,25,21.90
2006,07,24,10,26,22.00
2006,07,24,10,27,22.00
2006,07,24,10,28,21.90
2006,07,24,10,29,21.70
2006,07,24,10,30,21.60
2006,07,24,10,31,21.60
2006,07,24,10,32,21.60
2006,07,24,10,33,21.60
2006,07,24,10,34,21.30
2006,07,24,10,35,21.30
2006,07,24,10,36,21.30
2006,07,24,10,37,21.30
2006,07,24,10,38,21.30
2006,07,24,10,39,21.30
2006,07,24,10,40,21.30
2006,07,24,10,41,21.40
2006,07,24,10,42,21.40
2006,07,24,10,43,21.30
2006,07,24,10,44,21.40
2006,07,24,10,45,21.60
2006,07,24,10,46,21.60
2006,07,24,10,47,21.60
2006,07,24,10,48,21.70
2006,07,24,10,49,21.70
2006,07,24,10,50,21.70
2006,07,24,10,51,21.70
2006,07,24,10,52,21.70
2006,07,24,10,53,21.70
2006,07,24,10,54,21.80
2006,07,24,10,55,21.90
2006,07,24,10,56,21.80
2006,07,24,10,57,21.70
2006,07,24,10,58,21.70
2006,07,24,10,59,21.60
2006,07,24,11,00,21.70
2006,07,24,11,01,21.70
2006,07,24,11,02,21.70
2006,07,24,11,03,21.70
2006,07,24,11,04,21.80
2006,07,24,11,05,21.80
2006,07,24,11,06,21.70
2006,07,24,11,07,21.70
2006,07,24,11,08,21.80
2006,07,24,11,09,21.80
2006,07,24,11,10,21.80
2006,07,24,11,11,21.70
2006,07,24,11,12,21.70
2006,07,24,11,13,21.60
2006,07,24,11,14,21.60
2006,07,24,11,15,21.30
2006,07,24,11,16,21.20
2006,07,24,11,17,21.10
2006,07,24,11,18,21.00
2006,07,24,11,19,21.00
2006,07,24,11,20,21.00
2006,07,24,11,21,21.10
2006,07,24,11,22,21.20
2006,07,24,11,23,21.20
2006,07,24,11,24,21.10
2006,07,24,11,25,21.10
2006,07,24,11,26,21.10
2006,07,24,11,27,21.30
2006,07,24,11,28,21.60
2006,07,24,11,29,21.70
2006,07,24,11,30,21.70
2006,07,24,11,31,21.80
2006,07,24,11,32,21.90
2006,07,24,11,33,22.00
2006,07,24,11,34,22.00
2006,07,24,11,35,22.10
2006,07,24,11,36,22.10
2006,07,24,11,37,22.10
2006,07,24,11,38,22.00
2006,07,24,11,39,21.90
2006,07,24,11,40,22.00
2006,07,24,11,41,21.90
2006,07,24,11,42,21.90
2006,07,24,11,43,21.90
2006,07,24,11,44,21.80
2006,07,24,11,45,21.70
2006,07,24,11,46,21.70
2006,07,24,11,47,21.60
2006,07,24,11,48,21.40
2006,07,24,11,49,21.30
2006,07,24,11,50,21.30
2006,07,24,11,51,21.30
2006,07,24,11,52,21.30
2006,07,24,11,53,21.30
2006,07,24,11,54,21.30
2006,07,24,11,55,21.30
2006,07,24,11,56,21.20
2006,07,24,11,57,21.20
2006,07,24,11,58,21.10
2006,07,24,11,59,21.10
2006,07,24,12,00,21.10
2006,07,24,12,01,21.10
2006,07,24,12,02,21.10
2006,07,24,12,03,21.10
2006,07,24,12,04,21.10
2006,07,24,12,05,21.00
2006,07,24,12,06,21.00
2006,07,24,12,07,20.90
2006,07,24,12,08,20.90
2006,07,24,12,09,20.90
2006,07,24,12,10,20.90
2006,07,24,12,11,20.90
2006,07,24,12,12,20.90
2006,07,24,12,13,20.90
2006,07,24,12,14,20.90
2006,07,24,12,15,20.90
2006,07,24,12,16,20.90
2006,07,24,12,17,21.20
2006,07,24,12,18,21.30
2006,07,24,12,19,21.40
2006,07,24,12,20,21.50
2006,07,24,12,21,21.60
2006,07,24,12,22,21.70
2006,07,24,12,23,21.70
2006,07,24,12,24,21.80
2006,07,24,12,25,21.80
2006,07,24,12,26,21.90
2006,07,24,12,27,22.00
2006,07,24,12,28,22.10
2006,07,24,12,29,22.30
2006,07,24,12,30,22.50
2006,07,24,12,31,22.70
2006,07,24,12,32,22.80
2006,07,24,12,33,22.90
2006,07,24,12,34,22.80
2006,07,24,12,35,22.70
2006,07,24,12,36,22.70
2006,07,24,12,37,22.40
2006,07,24,12,38,22.30
2006,07,24,12,39,22.30
2006,07,24,12,40,22.30
2006,07,24,12,41,22.40
2006,07,24,12,42,22.60
2006,07,24,12,43,22.70
2006,07,24,12,44,22.60
2006,07,24,12,45,22.40
2006,07,24,12,46,22.30
2006,07,24,12,47,22.20
2006,07,24,12,48,22.30
2006,07,24,12,49,22.50
2006,07,24,12,50,22.50
2006,07,24,12,51,22.40
2006,07,24,12,52,22.30
2006,07,24,12,53,22.30
2006,07,24,12,54,22.30
2006,07,24,12,55,22.30
2006,07,24,12,56,22.40
2006,07,24,12,57,22.40
2006,07,24,12,58,22.40
2006,07,24,12,59,22.40
2006,07,24,13,00,22.30
2006,07,24,13,01,22.50
2006,07,24,13,02,22.60
2006,07,24,13,03,22.60
2006,07,24,13,04,22.70
2006,07,24,13,05,22.80
2006,07,24,13,06,22.80
2006,07,24,13,07,22.80
2006,07,24,13,08,22.90
2006,07,24,13,09,22.90
2006,07,24,13,10,22.90
2006,07,24,13,11,22.90
2006,07,24,13,12,22.90
2006,07,24,13,13,23.00
2006,07,24,13,14,23.10
2006,07,24,13,15,23.20
2006,07,24,13,16,23.30
2006,07,24,13,17,23.50
2006,07,24,13,18,23.70
2006,07,24,13,19,23.70
2006,07,24,13,20,23.70
2006,07,24,13,21,23.60
2006,07,24,13,22,23.50
2006,07,24,13,23,23.50
2006,07,24,13,24,23.50
2006,07,24,13,25,23.40
2006,07,24,13,26,23.50
2006,07,24,13,27,23.60
2006,07,24,13,28,23.70
2006,07,24,13,29,23.60
2006,07,24,13,30,23.70
2006,07,24,13,31,23.70
2006,07,24,13,32,23.70
2006,07,24,13,33,23.70
2006,07,24,13,34,23.70
2006,07,24,13,35,23.70
2006,07,24,13,36,23.80
2006,07,24,13,37,23.90
2006,07,24,13,38,23.90
2006,07,24,13,39,23.90
2006,07,24,13,40,23.80
2006,07,24,13,41,23.90
2006,07,24,13,42,24.00
2006,07,24,13,43,24.10
2006,07,24,13,44,24.10
2006,07,24,13,45,24.10
2006,07,24,13,46,24.10
2006,07,24,13,47,24.10
2006,07,24,13,48,24.00
2006,07,24,13,49,24.00
2006,07,24,13,50,23.90
2006,07,24,13,51,23.70
2006,07,24,13,52,23.70
2006,07,24,13,53,23.80
2006,07,24,13,54,24.00
2006,07,24,13,55,24.10
2006,07,24,13,56,24.30
2006,07,24,13,57,24.40
2006,07,24,13,58,24.30
2006,07,24,13,59,24.20
2006,07,24,14,00,24.10
2006,07,24,14,01,23.80
2006,07,24,14,02,23.50
2006,07,24,14,03,23.40
2006,07,24,14,04,23.40
2006,07,24,14,05,23.40
2006,07,24,14,06,23.40
2006,07,24,14,07,23.30
2006,07,24,14,08,23.30
2006,07,24,14,09,23.30
2006,07,24,14,10,23.30
2006,07,24,14,11,23.30
2006,07,24,14,12,23.30
2006,07,24,14,13,23.30
2006,07,24,14,14,23.30
2006,07,24,14,15,23.20
2006,07,24,14,16,23.10
2006,07,24,14,17,22.90
2006,07,24,14,18,22.90
2006,07,24,14,19,23.00
2006,07,24,14,20,23.10
2006,07,24,14,21,22.90
2006,07,24,14,22,22.90
2006,07,24,14,23,22.60
2006,07,24,14,24,22.50
2006,07,24,14,25,22.30
2006,07,24,14,26,22.30
2006,07,24,14,27,22.30
2006,07,24,14,28,22.30
2006,07,24,14,29,22.30
2006,07,24,14,30,22.30
2006,07,24,14,31,22.30
2006,07,24,14,32,22.30
2006,07,24,14,33,22.50
2006,07,24,14,34,22.40
2006,07,24,14,35,22.40
2006,07,24,14,36,22.40
2006,07,24,14,37,22.60
2006,07,24,14,38,22.60
2006,07,24,14,39,22.60
2006,07,24,14,40,22.70
2006,07,24,14,41,22.70
2006,07,24,14,42,22.60
2006,07,24,14,43,22.60
2006,07,24,14,44,22.60
2006,07,24,14,45,22.60
2006,07,24,14,46,22.60
2006,07,24,14,47,22.70
2006,07,24,14,48,22.90
2006,07,24,14,49,23.20
2006,07,24,14,50,23.30
2006,07,24,14,51,23.20
2006,07,24,14,52,23.10
2006,07,24,14,53,23.10
2006,07,24,14,54,22.90
2006,07,24,14,55,22.90
2006,07,24,14,56,22.90
2006,07,24,14,57,23.10
2006,07,24,14,58,23.20
2006,07,24,14,59,23.20
2006,07,24,15,00,23.20
2006,07,24,15,01,23.30
2006,07,24,15,02,23.30
2006,07,24,15,03,23.20
2006,07,24,15,04,23.10
2006,07,24,15,05,22.90
2006,07,24,15,06,22.90
2006,07,24,15,07,23.00
2006,07,24,15,08,23.10
2006,07,24,15,09,23.30
2006,07,24,15,10,23.30
2006,07,24,15,11,23.30
2006,07,24,15,12,23.30
2006,07,24,15,13,23.30
2006,07,24,15,14,23.30
2006,07,24,15,15,23.40
2006,07,24,15,16,23.60
2006,07,24,15,17,23.70
2006,07,24,15,18,23.70
2006,07,24,15,19,23.70
2006,07,24,15,20,23.70
2006,07,24,15,21,23.60
2006,07,24,15,22,23.60
2006,07,24,15,23,23.70
2006,07,24,15,24,23.60
2006,07,24,15,25,23.50
2006,07,24,15,26,23.40
2006,07,24,15,27,23.50
2006,07,24,15,28,23.60
2006,07,24,15,29,23.50
2006,07,24,15,30,23.30
2006,07,24,15,31,23.20
2006,07,24,15,32,23.30
2006,07,24,15,33,23.30
2006,07,24,15,34,23.20
2006,07,24,15,35,23.00
2006,07,24,15,36,22.90
2006,07,24,15,37,22.90
2006,07,24,15,38,22.90
2006,07,24,15,39,22.80
2006,07,24,15,40,22.80
2006,07,24,15,41,22.90
2006,07,24,15,42,22.90
2006,07,24,15,43,22.90
2006,07,24,15,44,22.90
2006,07,24,15,45,22.90
2006,07,24,15,46,22.90
2006,07,24,15,47,22.90
2006,07,24,15,48,22.90
2006,07,24,15,49,22.80
2006,07,24,15,50,22.70
2006,07,24,15,51,22.70
2006,07,24,15,52,22.70
2006,07,24,15,53,22.80
2006,07,24,15,54,22.80
2006,07,24,15,55,22.90
2006,07,24,15,56,23.00
2006,07,24,15,57,23.10
2006,07,24,15,58,23.30
2006,07,24,15,59,23.40
2006,07,24,16,00,23.50
2006,07,24,16,01,23.60
2006,07,24,16,02,23.70
2006,07,24,16,03,23.70
2006,07,24,16,04,23.70
2006,07,24,16,05,23.70
2006,07,24,16,06,23.70
2006,07,24,16,07,23.70
2006,07,24,16,08,23.70
2006,07,24,16,09,23.70
2006,07,24,16,10,23.70
2006,07,24,16,11,23.80
2006,07,24,16,12,23.80
2006,07,24,16,13,23.70
2006,07,24,16,14,23.70
2006,07,24,16,15,23.70
2006,07,24,16,16,23.70
2006,07,24,16,17,23.70
2006,07,24,16,18,23.70
2006,07,24,16,19,23.70
2006,07,24,16,20,23.70
2006,07,24,16,21,23.60
2006,07,24,16,22,23.40
2006,07,24,16,23,23.30
2006,07,24,16,24,23.20
2006,07,24,16,25,23.20
2006,07,24,16,26,23.20
2006,07,24,16,27,23.20
2006,07,24,16,28,23.30
2006,07,24,16,29,23.30
2006,07,24,16,30,23.30
2006,07,24,16,31,23.40
2006,07,24,16,32,23.50
2006,07,24,16,33,23.60
2006,07,24,16,34,23.70
2006,07,24,16,35,23.70
2006,07,24,16,36,23.70
2006,07,24,16,37,23.60
2006,07,24,16,38,23.60
2006,07,24,16,39,23.60
2006,07,24,16,40,23.60
2006,07,24,16,41,23.70
2006,07,24,16,42,23.80
2006,07,24,16,43,23.80
2006,07,24,16,44,23.80
2006,07,24,16,45,23.70
2006,07,24,16,46,23.40
2006,07,24,16,47,23.10
2006,07,24,16,48,22.90
2006,07,24,16,49,22.90
2006,07,24,16,50,22.90
2006,07,24,16,51,22.80
2006,07,24,16,52,22.70
2006,07,24,16,53,22.70
2006,07,24,16,54,22.80
2006,07,24,16,55,22.90
2006,07,24,16,56,23.10
2006,07,24,16,57,23.30
2006,07,24,16,58,23.30
2006,07,24,16,59,23.40
2006,07,24,17,00,23.40
2006,07,24,17,01,23.60
2006,07,24,17,02,23.70
2006,07,24,17,03,23.80
2006,07,24,17,04,23.80
2006,07,24,17,05,23.90
2006,07,24,17,06,24.10
2006,07,24,17,07,24.10
2006,07,24,17,08,24.00
2006,07,24,17,09,23.90
2006,07,24,17,10,23.70
2006,07,24,17,11,23.60
2006,07,24,17,12,23.50
2006,07,24,17,13,23.40
2006,07,24,17,14,23.40
2006,07,24,17,15,23.50
2006,07,24,17,16,23.60
2006,07,24,17,17,23.60
2006,07,24,17,18,23.60
2006,07,24,17,19,23.70